Location: Albany
(35.0000°S, 118.0000°E)
Time: 19:18:13
(UTC-05:00)

Atlas Centaur 2 - Pass Details

Date: 24 August 2017
Orbit: 459 x 1313 km, 30.4° (Epoch: 19 November)

Event Time Altitude Azimuth Distance (km) Brightness Sun altitude
Exits shadow 16:26:56 23° 54° (NE) 1,037 3.1 -27.3°
Drops below altitude 10° 16:28:41 10° 74° (ENE) 1,608 4.6 -26.9°
Sets 16:30:58 0° 84° (E) 2,496 5.9 -26.4°
